Orbital Elements at Epoch 2459200.5 (2020-Dec-17.0) TDB
Reference: JPL 27 (heliocentric ecliptic J2000)
Element | Value | Uncertainty (1-sigma) | Units |
e | .1732548044983034 | 4.5236e-08 | |
a | 2.661563316721298 | 1.3077e-08 | au |
q | 2.200434684622893 | 1.2503e-07 | au |
i | 13.70631576726548 | 4.7384e-06 | deg |
node | 20.84723210351946 | 1.5251e-05 | deg |
peri | 329.2825969027962 | 1.9173e-05 | deg |
M | 4.853493419243057 | 1.0469e-05 | deg |
tp | 2459179.117643086404 (2020-Nov-25.61764309) | 4.6104e-05 | TDB |
period | 1586.001633045415 4.34 | 1.1689e-05 3.2e-08 | d yr |
n | .2269858949065101 | 1.6729e-09 | deg/d |
Q | 3.122691948819703 | 1.5343e-08 | au |
|
| | Orbit Determination Parameters
Additional Information
|